Погода в Бомнаке

Погода в Бомнаке : погода сейчас, прогноз погоды и архив. Всё, что Вы хотите узнать о погоде в Бомнаке!

Поиск расширенной информации на нашем сайте:

Другие новости

Новости СМИ2

Главная страница сайта

Новости сайта

03.07.2017

Напоминаем, что на нашем специализированном сайте Метеоцентр.Азия вы можете получить высокодетализированные автоматические прогнозы погоды по пунктам России, СНГ и мира в авиационном формате (включающие направление и скорость ветра, видимость, явления погоды, количество и форму облачности, нижнюю и верхнюю границу облачности).


Погода в Бомнаке - сегодня

Время (UTC), дата Ветер
(°,м/с) 
Видим.   Явления Облачность Т
(°С)
Тd
(°С)
f(%) Тe
(°С)
Pmin
(гПа)
dP
(гПа)
Po
(мм)
O2
(г/м3)
Тmin Tmax R s Состояние
почвы
09 20.10.18 320 (СЗ) 20000 м    3/3 600 м верхняя 
[Sc diur, vesp|Ci fib]
+2.5 -8.9 43 +2  1020.2  1.1  732  293           
12 20.10.18 340 (С) 20000 м    ясно 
+0.1 -9 50 -2  1021.2  0.7  732  296    +5.9       
15 20.10.18 330 (СЗ) 20000 м    ясно 
-2.1 -9.2 58 -4  1022.1  0.5  732  298           
18 20.10.18 340 (С) 20000 м    ясно 
-5.1 -10.2 67 -7  1023  0.3  733  302           
21 20.10.18 320 (СЗ) 20000 м    ясно 
-7.4 -10.3 80 -7  1023.6  0.2  733  304           
00 21.10.18 070 (В) 20000 м    3/0 средняя 
[Ac trans]
-3.7 -9.5 64 -5  1023.5  0.5  733  300  -7.6        замёрзшая 
03 21.10.18 110 (В) 20000 м    3/0 средняя 
[Ac trans]
-0.1 -6.7 61 -1  1022.5  -0.4  733  296           
06 21.10.18 110 (В) 20000 м    4/0 верхняя 
[Ci fib]
+3 -7.4 46 +2  1020.2  -1.7  732  292           
09 21.10.18 070 (В) 20000 м    10/0 средняя, верхняя 
[Ac trans|Cs]
+1.8 -8.5 46 1019.7  -0.7  731  293           
15 21.10.18 070 (В) 20000 м    10/0 средняя, верхняя 
[Ac trans|Cs]
+1 -9 47 -1  1019.4  -0.6  731  294           
18 21.10.18 090 (В) 20000 м    10/5 600 м средняя, верхняя 
[Sc|Ac trans|Cs]
+0.7 -8.4 51 -1  1018.2  -1.2  730  294           
21 21.10.18 080 (В) 20000 м    10/8 600 м средняя 
[Sc|Ac As]
+0.7 -8.3 51 -2  1016.6  -1.5  729  294           
00 22.10.18 090 (В) 20000 м    10/3 600 м средняя, верхняя 
[Sc|Ac trans|Cs]
+1.8 -8 48 1016  -0.4  728  292  +0.4        замёрзшая 
03 22.10.18 100 (В) 20000 м    10/6 600 м кучево-дожд., средняя, верхняя 
[Cb cap|Ac trans|Ci fib]
+2.7 -6.5 51 +1  1015.4  -0.4  728  291           
06 22.10.18 100 (В) 20000 м    10/4 600 м средняя 
[Sc diur, vesp|As op]
+4.8 -4.9 49 +4  1014  -1  727  289           
09 22.10.18 070 (В) 10 км  слаб. ливневой дождь  10/10 600 м кучево-дожд. 
[Cb cap]
+3.2 -1.6 71 +2  1014.1  0.1  727  290           
12 22.10.18 100 (В) 10 км  слаб. ливневой дождь  10/10 600 м кучево-дожд. 
[Cb cap]
+3 +0.4 83 +1  1014  0.1  727  290    +5.1  0.4     
15 22.10.18 080 (В) 20000 м  в посл. час ливневой дождь  10/10 600 м кучево-дожд. 
[Cb cap]
+3.1 +1 86 +1  1012.9  -1  726  289           
18 22.10.18 090 (В) 10 км  слаб. ливневой дождь  10/10 600 м кучево-дожд. 
[Cb cap]
+3 -1 75 +1  1011.7  -1.1  726  289           
21 22.10.18 080 (В) 10 км  слаб. ливневой дождь  10/10 600 м кучево-дожд. 
[Cb cap]
+1.1 -1.5 83 -1  1011.1  -0.9  725  291           
00 23.10.18 090 (В) 4000 м  слаб. ливневой дождь  10/10 600 м кучево-дожд. 
[Cb cap]
+1.2 -0.7 87 -1  1011.4  0.3  725  291  +1      влажная 
03 23.10.18 090 (В) 10 км  слаб. ливневой дождь  10/10 600 м кучево-дожд. 
[Cb cap]
+1.9 +0.2 88 -1  1010.6  -0.5  725  290           
09 23.10.18 100 (В) 5{10}  20000 м    10/10 600 м 
[Sc]
+3.6 +0.5 80 +1  1008.2  -0.3  723  287           
12 23.10.18 100 (В) 4{10}  10 км  слаб. ливневой дождь  10/10 600 м кучево-дожд. 
[Cb cap]
+2.3 +0.5 88 1008.6  0.2  723  289    +3.7     
15 23.10.18 090 (В) 10 км  слаб. ливневой дождь  10/10 600 м кучево-дожд. 
[Cb cap]
+1.5 +0.3 92 1007.9  -0.8  723  289           
Время (UTC), дата Ветер
(°,м/с) 
Видим.   Явления Облачность Т
(°С)
Тd
(°С)
f(%) Тe
(°С)
Pmin
(гПа)
dP
(гПа)
Po
(мм)
O2
(г/м3)
Тmin Tmax R s Состояние
почвы

Для получения пояснительной информации подведите курсор к названию столбца.

ПОГОДА в Бомнаке - архив

Всё, что Вы хотите узнать о погоде в Бомнаке - удобно и подробно!

Выберите нужную дату (начиная с 1 января 2015* года) и нажмите кнопку "Найти".
Будут отображены архивные сводки погоды по пункту Бомнак, начиная с указанной даты.


Отображать данные в формате CSV (для использования в таблицах Excel)


Внимание! Наш архив погоды предназначен исключительно для личного некоммерческого использования в познавательных целях. Если Вам необходимы официальные справки о состоянии погоды (для производственных, юридических, коммерческих и т.п. целей), обращайтесь в органы Росгидромета.

*Примечание: данная дата относится к архиву по метеостанциям СССР (Россия, СНГ, Балтия).
Архив по метеостанциям Зарубежной Европы и Азии (кроме Китая) хранится 10 дней, по другим регионам земного шара (Китай, Африка, Америка, Австралия, Океания) - 1 день.

Бомнак - район местоположения метеостанции


Название, широта, долгота, высота метеостанции:
Бомнак 54.7°ш. 128.9°д. 357 м над ур. моря [Российская Федерация]

Дополнительная информация

В oтличие oт бoльшинства пoгoдных сайтoв мы публикуем пoдрoбную метеoинфoрмацию в детальнoм прoфессиoнальнoм фoрмате.

Характеристики температуры и влажнoсти вoздуха измеряются на высoте 2 м в тени вдали oт зданий и деревьев.
Скoрoсть ветра измеряется на высoте 10 м (на урoвне рoста челoвека скoрoсть ветра ниже в 1.5-2 раза). Если метеoстанция нахoдится в гoрoде или в лесу, тo скoрoсть ветра занижена на 2-4 м/с пo сравнению с oткрытым местoм. Скoрoсть ветра над акватoриями крупных рек и oзёр, а также на вершинах хoлмoв на 2-5 м/с выше, чем в oбычных услoвиях.
Атмoсфернoе давление в разных тoчках местнoсти мoжет значительнo oтличаться oт давления на метеoстанции, в зависимoсти oт услoвий рельефа (при пoдъёме на 10 м давление пoнижается примернo на 1 мм рт.ст.).